Location: Hopkins Observatory
(42.6965°N, 73.1843°W)
Time: 23:47:38
(UTC-04:00)

Amateur Radio Satellites - All Passes

Search period start: 01 July 2016 23:17
Search period end: 02 July 2016 23:17
Location: Hopkins Observatory, 42.6965°N, 73.1843°W

Satellite Date Start Highest point End Downlink Frequencies (MHz)
Time Altitude Azimuth
AISAT 01 Jul 23:22:39 23:26:54 50° 72° (ENE) 23:31:10 437.250
NANOSAT C BR1 01 Jul 23:24:45 23:27:10 15° 91° (E) 23:29:35 145.865
RS-15 01 Jul 23:24:56 23:31:41 17° 265° (W) 23:38:26 29.354- 29.394
QB50P1 01 Jul 23:29:31 23:32:24 18° 92° (E) 23:35:17 145.935-145.965
DX 1 01 Jul 23:29:50 23:33:57 45° 71° (ENE) 23:38:06 434.975-435.025
POPSAT HIP 1 01 Jul 23:32:57 23:36:00 19° 93° (E) 23:39:03 437.405
ESTCUBE 1 01 Jul 23:33:16 23:37:49 82° 257° (WSW) 23:42:23 437.505/2401.250
Cosmos 2504 01 Jul 23:36:13 23:43:02 24° 63° (ENE) 23:49:38 435.465 / 435.565
DUCHIFAT 1 01 Jul 23:42:48 23:46:07 22° 94° (E) 23:49:25 145.980
QB50P2 01 Jul 23:45:45 23:49:27 28° 96° (E) 23:53:07 145.880/145.840
POLYITAN 1 01 Jul 23:48:22 23:52:05 28° 96° (E) 23:55:48 437.675
TIGRISAT 01 Jul 23:51:23 23:55:53 49° 288° (WNW) 00:00:25 435.000
50 SAT 01 Jul 23:56:46 00:00:27 60° 259° (W) 00:04:09 437.505
UNISAT 6 01 Jul 23:57:53 00:02:16 40° 289° (WNW) 00:06:39 437.425
CUBEBUG 1 01 Jul 23:59:49 00:04:07 62° 259° (W) 00:08:26 437.445
Cosmos 2491 02 Jul 00:00:58 00:09:11 47° 88° (E) 00:17:22 435.465 / 435.565
SO-50 02 Jul 00:03:22 00:08:04 88° 237° (WSW) 00:12:36 436.795
TISAT 1 02 Jul 00:06:06 00:08:40 16° 64° (ENE) 00:11:15 437.305
VELOX 1 02 Jul 00:17:48 00:22:00 43° 261° (W) 00:26:13 145.980
BUGSAT 1 02 Jul 00:23:13 00:26:43 27° 96° (E) 00:30:16 437.445
SPROUT 02 Jul 00:33:09 00:37:22 67° 259° (W) 00:41:37 437.525
ANTELSAT 02 Jul 00:38:32 00:41:39 18° 296° (WNW) 00:44:47 437.575/2403.000
UKube-1 02 Jul 00:39:04 00:43:07 39° 261° (W) 00:47:11 .
SWISSCUBE 02 Jul 00:43:38 00:44:53 11° 58° (ENE) 00:46:07 437.505
YUBILEINY 02 Jul 00:45:38 00:54:07 53° 270° (W) 01:02:35 435.215
JAS-2 02 Jul 00:58:01 01:02:59 34° 95° (E) 01:07:40 435.910
NANOSAT C BR1 02 Jul 00:59:04 01:03:11 50° 287° (WNW) 01:07:18 145.865
AISAT 02 Jul 01:01:03 01:03:40 15° 268° (W) 01:06:17 437.250
QB50P1 02 Jul 01:04:20 01:08:22 41° 289° (WNW) 01:12:23 145.935-145.965
BEESAT 02 Jul 01:06:29 01:09:29 17° 61° (ENE) 01:12:28 436.000
DX 1 02 Jul 01:07:32 01:10:22 17° 267° (W) 01:13:13 434.975-435.025
POPSAT HIP 1 02 Jul 01:07:57 01:11:56 39° 289° (WNW) 01:15:54 437.405
ITUPSAT 1 02 Jul 01:09:51 01:13:00 18° 62° (ENE) 01:16:10 437.325
DUCHIFAT 1 02 Jul 01:18:03 01:21:52 33° 290° (WNW) 01:25:41 145.980
QB50P2 02 Jul 01:21:35 01:25:10 27° 292° (WNW) 01:28:45 145.880/145.840
POLYITAN 1 02 Jul 01:24:13 01:27:48 26° 292° (WNW) 01:31:23 437.675
BEESAT 3 02 Jul 01:27:42 01:31:15 34° 116° (ESE) 01:34:50 437.485
Cosmos 2504 02 Jul 01:28:37 01:37:31 81° 264° (W) 01:45:57 435.465 / 435.565
PCSat 02 Jul 01:39:55 01:45:19 73° 117° (ESE) 01:50:45 145.827
TISAT 1 02 Jul 01:39:57 01:43:57 46° 260° (W) 01:47:59 437.305
Oscar 19 02 Jul 01:49:27 01:54:10 36° 97° (E) 01:58:52 437.125/150
O/OREOS (USA 219) 02 Jul 01:54:11 01:58:24 41° 107° (ESE) 02:02:37 437.305
Cosmos 2491 02 Jul 01:58:03 02:06:07 40° 289° (WNW) 02:14:13 435.465 / 435.565
BUGSAT 1 02 Jul 01:58:36 02:02:02 26° 292° (WNW) 02:05:29 437.445
BEESAT 2 02 Jul 02:12:41 02:16:34 58° 120° (ESE) 02:20:30 435.950
SWISSCUBE 02 Jul 02:17:06 02:21:53 85° 74° (ENE) 02:26:44 437.505
ITAMSAT 1 02 Jul 02:23:07 02:24:18 11° 88° (E) 02:25:30 435.822/435.867
KKS-1 02 Jul 02:32:18 02:34:34 14° 61° (ENE) 02:36:50 437.445
Gurwin Techsat 1B 02 Jul 02:36:22 02:41:28 44° 99° (E) 02:46:30 435.225
BEESAT 02 Jul 02:42:03 02:46:46 60° 259° (W) 02:51:32 436.000
JAS-2 02 Jul 02:43:15 02:48:02 30° 296° (WNW) 02:52:33 435.910
ITUPSAT 1 02 Jul 02:45:39 02:50:23 57° 259° (W) 02:55:08 437.325
AIST 1 02 Jul 02:46:40 02:48:41 13° 68° (ENE) 02:50:43
MOZHAYETS 4 02 Jul 02:48:57 02:52:13 19° 64° (ENE) 02:55:29
STARS 02 Jul 02:54:43 02:56:21 12° 60° (ENE) 02:58:01 437.465
BEESAT 3 02 Jul 03:05:45 03:09:00 24° 314° (NW) 03:12:16 437.485
Cosmos 2504 02 Jul 03:24:26 03:29:21 17° 285° (WNW) 03:34:12 435.465 / 435.565
PCSat 02 Jul 03:25:13 03:29:16 21° 317° (NW) 03:33:22 145.827
AIST 2 02 Jul 03:27:39 03:30:39 20° 112° (ESE) 03:33:40 435.215
Oscar 19 02 Jul 03:29:00 03:33:22 29° 294° (WNW) 03:37:43 437.125/150
AO-7 02 Jul 03:31:32 03:38:16 26° 94° (E) 03:44:55 29.400- 29.500
O/OREOS (USA 219) 02 Jul 03:34:31 03:37:58 21° 305° (NW) 03:41:26 437.305
BEESAT 2 02 Jul 03:52:06 03:54:46 17° 318° (NW) 03:57:27 435.950
AO-85 02 Jul 03:55:49 03:58:18 14° 34° (NNE) 04:00:40 145.980
ITAMSAT 1 02 Jul 03:59:13 04:04:30 89° 105° (ESE) 04:09:43 435.822/435.867
SWISSCUBE 02 Jul 03:59:35 04:00:18 10° 272° (W) 04:01:01 437.505
Cosmos 2499 02 Jul 04:02:01 04:07:19 17° 58° (ENE) 04:12:25 435.465 / 435.565
KKS-1 02 Jul 04:06:14 04:10:36 64° 258° (WSW) 04:15:01 437.445
Gurwin Techsat 1B 02 Jul 04:16:49 04:21:09 26° 296° (WNW) 04:25:28 435.225
AIST 1 02 Jul 04:22:30 04:26:40 55° 266° (W) 04:30:49
MOZHAYETS 4 02 Jul 04:24:33 04:29:01 47° 261° (W) 04:33:32
CUBESAT XI-V 02 Jul 04:26:28 04:30:11 24° 66° (ENE) 04:33:54 437.345
STARS 02 Jul 04:27:46 04:32:07 74° 258° (WSW) 04:36:30 437.465
GONETS M04 02 Jul 04:47:18 04:55:37 46° 74° (ENE) 05:03:56
PHONESAT 2.4 02 Jul 05:01:45 05:03:46 16° 153° (SSE) 05:05:47 2401.200-2431.200
AIST 2 02 Jul 05:04:56 05:08:51 41° 309° (NW) 05:12:48 435.215
HORYU 2 02 Jul 05:21:47 05:25:59 37° 98° (E) 05:30:10 437.375
AO-7 02 Jul 05:23:20 05:31:41 72° 292° (WNW) 05:39:58 29.400- 29.500
AO-85 02 Jul 05:35:04 05:39:38 80° 56° (NE) 05:43:47 145.980
ITAMSAT 1 02 Jul 05:40:46 05:43:12 13° 302° (WNW) 05:45:38 435.822/435.867
NOAA 15 02 Jul 05:45:14 05:48:05 15° 90° (E) 05:50:57 137.62
STRAND 1 02 Jul 05:45:31 05:48:01 14° 58° (ENE) 05:50:30 437.568
Cosmos 2499 02 Jul 05:53:20 06:02:08 77° 81° (E) 06:10:19 435.465 / 435.565
CUBESAT XI-V 02 Jul 06:02:58 06:07:21 38° 263° (W) 06:11:44 437.345
LilacSat-2 02 Jul 06:07:25 06:09:16 13° 91° (E) 06:11:07 437.200
CUSAT 1 02 Jul 06:24:39 06:31:10 34° 92° (E) 06:36:41 437.405
Cubesat XI-IV 02 Jul 06:35:15 06:40:03 32° 96° (E) 06:44:48 437.490
PHONESAT 2.4 02 Jul 06:37:00 06:39:57 45° 169° (S) 06:42:54 2401.200-2431.200
ISS 02 Jul 06:42:03 06:44:13 17° 133° (SE) 06:46:22 145.825
GONETS M04 02 Jul 06:44:23 06:52:18 41° 274° (W) 07:00:16
HORYU 2 02 Jul 06:58:49 07:02:19 23° 295° (WNW) 07:05:48 437.375
NOAA 18 02 Jul 07:01:36 07:07:05 58° 101° (ESE) 07:12:33 137.9125
CUTE-I 02 Jul 07:07:58 07:13:19 63° 101° (ESE) 07:18:38 437.470
BRITE-PL 02 Jul 07:16:56 07:21:03 67° 285° (WNW) 07:25:16 437.365/2234.400
AO-7 02 Jul 07:17:53 07:23:02 18° 313° (NW) 07:28:10 29.400- 29.500
AO-85 02 Jul 07:18:53 07:19:14 10° 255° (WSW) 07:19:34 145.980
PRISM 02 Jul 07:20:39 07:22:47 14° 63° (ENE) 07:24:55 437.425
STRAND 1 02 Jul 07:21:18 07:26:27 85° 256° (WSW) 07:31:39 437.568
DANDE 02 Jul 07:22:23 07:30:21 50° 93° (E) 07:37:27 436.750
NOAA 15 02 Jul 07:23:09 07:28:24 71° 287° (WNW) 07:33:36 137.62
GOMX 1 02 Jul 07:29:46 07:34:02 74° 102° (ESE) 07:38:30 467.674
LilacSat-2 02 Jul 07:40:04 07:43:50 47° 287° (WNW) 07:47:33 437.200
Cosmos 2499 02 Jul 07:47:55 07:54:12 23° 281° (WNW) 08:00:14 435.465 / 435.565
CUSAT 1 02 Jul 08:06:02 08:13:08 46° 284° (WNW) 08:18:58 437.405
DOVE 4 02 Jul 08:09:35 08:14:01 89° 103° (ESE) 08:18:41 437.250
COMPASS 1 02 Jul 08:10:06 08:10:45 10° 89° (E) 08:11:25 437.405
PHONESAT 2.4 02 Jul 08:13:23 08:16:23 53° 186° (S) 08:19:23 2401.200-2431.200
Cubesat XI-IV 02 Jul 08:15:15 08:20:06 35° 293° (WNW) 08:24:56 437.490
ISS 02 Jul 08:17:06 08:20:20 62° 329° (NNW) 08:23:36 145.825
HO-68 02 Jul 08:17:38 08:24:11 36° 97° (E) 08:30:40 435.675
CANX-2 02 Jul 08:21:28 08:25:22 33° 96° (E) 08:29:14 2200.000
CINEMA 3 02 Jul 08:35:37 08:40:08 51° 100° (E) 08:44:51 145.822/145.860
SEEDS 02 Jul 08:37:13 08:41:01 31° 96° (E) 08:44:45 437.485
CUTE 1.7 + AOD 2 02 Jul 08:40:30 08:44:39 47° 99° (E) 08:48:45 437.475
NOAA 18 02 Jul 08:43:10 08:47:18 22° 299° (WNW) 08:51:26 137.9125
PCSat 02 Jul 08:45:11 08:48:03 14° 36° (NE) 08:50:55 145.827
UWE-3 02 Jul 08:45:53 08:48:27 15° 90° (E) 08:51:02 435.000/436.395/437.385
CUTE-I 02 Jul 08:49:10 08:52:52 19° 299° (WNW) 08:56:32 437.470
PRISM 02 Jul 08:53:34 08:57:38 56° 259° (W) 09:01:43 437.425
M-CUBED/EXP-1 PRIME 02 Jul 09:01:54 09:03:30 12° 97° (E) 09:05:09 437.505
AAUSAT CUBESAT 2 02 Jul 09:04:35 09:08:24 34° 97° (E) 09:12:11 437.432
DANDE 02 Jul 09:05:39 09:13:16 39° 288° (WNW) 09:20:03 436.750
NOAA 15 02 Jul 09:06:32 09:07:13 10° 305° (NW) 09:07:54 137.62
GOMX 1 02 Jul 09:10:21 09:11:37 11° 298° (WNW) 09:12:53 467.674
TIGRISAT 02 Jul 09:15:49 09:18:34 17° 63° (ENE) 09:21:22 435.000
UNISAT 6 02 Jul 09:21:50 09:25:02 20° 65° (ENE) 09:28:17 437.425
RS-15 02 Jul 09:26:53 09:33:22 17° 96° (E) 09:40:00 29.354- 29.394
CUBEBUG 2 02 Jul 09:41:56 09:46:37 79° 103° (ESE) 09:51:22 437.445
COMPASS 1 02 Jul 09:42:36 09:46:46 68° 285° (WNW) 09:50:53 437.405
BEESAT 3 02 Jul 09:44:06 09:47:33 28° 47° (NE) 09:50:59 437.485
PHONESAT 2.4 02 Jul 09:50:10 09:52:41 23° 202° (SSW) 09:55:11 2401.200-2431.200
ZACube-1 02 Jul 09:50:19 09:54:43 44° 98° (E) 09:59:06 437.345
AUBIESAT-1 02 Jul 09:51:29 09:55:15 35° 104° (ESE) 09:59:13 437.475
Oscar 11 02 Jul 09:52:15 09:56:29 47° 99° (E) 10:00:40 145.826/435.025
ISS 02 Jul 09:54:46 09:57:16 20° 348° (NNW) 09:59:46 145.825
CANX-2 02 Jul 09:57:42 10:01:03 22° 293° (WNW) 10:04:21 2200.000
ANTELSAT 02 Jul 10:00:16 10:04:27 49° 72° (ENE) 10:08:45 437.575/2403.000
HO-68 02 Jul 10:05:12 10:12:00 47° 295° (WNW) 10:18:47 435.675
FUNcube-1 02 Jul 10:05:29 10:10:00 61° 100° (E) 10:14:32 145.935
Cosmos 2491 02 Jul 10:10:35 10:17:20 24° 64° (ENE) 10:24:03 435.465 / 435.565
SEEDS 02 Jul 10:13:11 10:16:34 23° 293° (WNW) 10:19:55 437.485
CINEMA 3 02 Jul 10:13:46 10:16:56 19° 295° (WNW) 10:20:10 145.822/145.860
DELFI C3 02 Jul 10:16:52 10:20:37 38° 98° (E) 10:24:19 145.870
CUTE 1.7 + AOD 2 02 Jul 10:17:23 10:20:06 17° 296° (WNW) 10:22:48 437.475
NANOSAT C BR1 02 Jul 10:18:33 10:20:26 13° 62° (ENE) 10:22:20 145.865
UWE-3 02 Jul 10:20:42 10:25:16 60° 286° (WNW) 10:29:51 435.000/436.395/437.385
QB50P1 02 Jul 10:23:22 10:25:49 15° 63° (ENE) 10:28:16 145.935-145.965
O/OREOS (USA 219) 02 Jul 10:25:50 10:27:31 12° 49° (NE) 10:29:11 437.305
POPSAT HIP 1 02 Jul 10:26:48 10:29:25 16° 64° (ENE) 10:32:03 437.405
PCSat 02 Jul 10:27:04 10:32:30 68° 58° (ENE) 10:37:53 145.827
HUMSAT D 02 Jul 10:27:44 10:31:20 25° 95° (E) 10:34:54 437.325/437.525
BEESAT 2 02 Jul 10:30:01 10:33:52 44° 52° (NE) 10:37:42 435.950
M-CUBED/EXP-1 PRIME 02 Jul 10:34:19 10:38:16 63° 291° (WNW) 10:42:33 437.505
DUCHIFAT 1 02 Jul 10:35:55 10:38:48 18° 65° (ENE) 10:41:40 145.980
QB50P2 02 Jul 10:39:22 10:42:42 23° 67° (ENE) 10:46:04 145.880/145.840
AAUSAT CUBESAT 2 02 Jul 10:40:34 10:43:40 21° 294° (WNW) 10:46:45 437.432
POLYITAN 1 02 Jul 10:41:58 10:45:20 24° 67° (ENE) 10:48:43 437.675
TIGRISAT 02 Jul 10:50:38 10:54:50 50° 261° (W) 10:59:10 435.000
UNISAT 6 02 Jul 10:57:23 11:01:28 40° 262° (W) 11:05:40 437.425
JAS-2 02 Jul 11:10:42 11:16:07 23° 61° (ENE) 11:21:09 435.910
BUGSAT 1 02 Jul 11:14:11 11:17:11 21° 66° (ENE) 11:20:12 437.445
CUBEBUG 2 02 Jul 11:20:38 11:22:37 13° 299° (WNW) 11:24:37 437.445
BEESAT 3 02 Jul 11:21:46 11:25:12 28° 245° (WSW) 11:28:37 437.485
ESTCUBE 1 02 Jul 11:25:53 11:29:09 19° 93° (E) 11:32:24 437.505/2401.250
AUBIESAT-1 02 Jul 11:26:23 11:29:33 22° 297° (WNW) 11:32:52 437.475
ZACube-1 02 Jul 11:27:21 11:30:40 20° 295° (WNW) 11:34:00 437.345
50 SAT 02 Jul 11:27:34 11:28:13 10° 90° (E) 11:28:53 437.505
Oscar 11 02 Jul 11:29:23 11:32:14 17° 296° (WNW) 11:35:04 145.826/435.025
RS-15 02 Jul 11:32:09 11:43:29 74° 117° (ESE) 11:55:27 29.354- 29.394
ISS 02 Jul 11:32:11 11:34:34 18° 9° (N) 11:36:57 145.825
ANTELSAT 02 Jul 11:38:50 11:41:28 16° 269° (W) 11:44:10 437.575/2403.000
FUNcube-1 02 Jul 11:43:07 11:45:45 15° 297° (WNW) 11:48:24 145.935
AIST 2 02 Jul 11:47:32 11:50:40 20° 43° (NE) 11:53:48 435.215
CUBEBUG 1 02 Jul 11:48:09 11:51:31 22° 94° (E) 11:54:53 437.445
YUBILEINY 02 Jul 11:51:12 11:59:02 39° 86° (E) 12:06:54 435.215
NANOSAT C BR1 02 Jul 11:51:31 11:55:38 62° 258° (WSW) 11:59:50 145.865
DELFI C3 02 Jul 11:52:32 11:55:11 17° 295° (WNW) 11:57:48 145.870
QB50P1 02 Jul 11:57:07 12:01:11 50° 260° (W) 12:05:17 145.935-145.965
POPSAT HIP 1 02 Jul 12:00:48 12:04:50 47° 261° (W) 12:08:54 437.405
O/OREOS (USA 219) 02 Jul 12:03:04 12:07:34 88° 258° (WSW) 12:12:05 437.305
HUMSAT D 02 Jul 12:03:10 12:06:56 29° 291° (WNW) 12:10:40 437.325/437.525
Cosmos 2491 02 Jul 12:06:26 12:15:08 77° 266° (W) 12:23:50 435.465 / 435.565
VELOX 1 02 Jul 12:07:04 12:11:01 31° 97° (E) 12:14:56 145.980
BEESAT 2 02 Jul 12:08:42 12:11:23 17° 249° (WSW) 12:14:04 435.950
DUCHIFAT 1 02 Jul 12:10:16 12:14:12 40° 262° (W) 12:18:09 145.980
PCSat 02 Jul 12:11:49 12:15:19 18° 255° (WSW) 12:18:48 145.827
QB50P2 02 Jul 12:14:38 12:18:21 31° 263° (W) 12:22:08 145.880/145.840
POLYITAN 1 02 Jul 12:17:18 12:21:00 30° 264° (W) 12:24:45 437.675
Cosmos 2504 02 Jul 12:17:44 12:22:39 17° 75° (ENE) 12:27:42 435.465 / 435.565
SPROUT 02 Jul 12:19:04 12:22:11 19° 93° (E) 12:25:17 437.525
Gurwin Techsat 1B 02 Jul 12:22:59 12:24:22 11° 56° (NE) 12:25:45 435.225
UKube-1 02 Jul 12:25:19 12:29:08 30° 97° (E) 12:32:56 .
AISAT 02 Jul 12:48:08 12:52:33 87° 289° (WNW) 12:56:57 437.250
BUGSAT 1 02 Jul 12:48:47 12:52:22 32° 263° (W) 12:56:00 437.445
DX 1 02 Jul 12:52:58 12:57:19 77° 103° (ESE) 13:01:39 434.975-435.025
JAS-2 02 Jul 12:53:04 13:00:36 75° 257° (WSW) 13:07:24 435.910
50 SAT 02 Jul 12:58:38 13:02:13 52° 286° (WNW) 13:05:46 437.505
ESTCUBE 1 02 Jul 13:01:54 13:06:08 41° 289° (WNW) 13:10:19 437.505/2401.250
Oscar 19 02 Jul 13:06:53 13:11:54 57° 72° (ENE) 13:16:57 437.125/150
ISS 02 Jul 13:08:23 13:11:35 49° 29° (NNE) 13:14:46 145.825
TISAT 1 02 Jul 13:23:19 13:26:46 24° 95° (E) 13:30:11 437.305
CUBEBUG 1 02 Jul 13:23:58 13:27:53 34° 290° (WNW) 13:31:46 437.445
AIST 2 02 Jul 13:25:23 13:29:25 50° 241° (WSW) 13:33:26 435.215
ITAMSAT 1 02 Jul 13:40:23 13:44:09 20° 62° (ENE) 13:47:54 435.822/435.867
VELOX 1 02 Jul 13:43:45 13:47:21 25° 293° (WNW) 13:50:55 145.980
RS-15 02 Jul 13:46:12 13:57:00 42° 324° (NW) 14:08:23 29.354- 29.394
YUBILEINY 02 Jul 13:47:18 13:55:37 48° 286° (WNW) 14:04:04 435.215
SPROUT 02 Jul 13:54:17 13:58:16 38° 289° (WNW) 14:02:14 437.525
Gurwin Techsat 1B 02 Jul 13:58:05 14:03:23 75° 74° (ENE) 14:08:43 435.225
UKube-1 02 Jul 14:01:32 14:05:04 25° 293° (WNW) 14:08:35 .
Cosmos 2491 02 Jul 14:06:09 14:10:23 15° 286° (WNW) 14:14:39 435.465 / 435.565
Cosmos 2504 02 Jul 14:06:19 14:14:33 84° 97° (E) 14:23:23 435.465 / 435.565
SWISSCUBE 02 Jul 14:17:21 14:20:55 20° 93° (E) 14:24:26 437.505
SO-50 02 Jul 14:18:29 14:22:31 26° 113° (ESE) 14:26:34 436.795
AO-7 02 Jul 14:31:09 14:38:42 40° 59° (ENE) 14:46:18 29.400- 29.500
DX 1 02 Jul 14:31:29 14:32:53 11° 300° (WNW) 14:34:17 434.975-435.025
BEESAT 02 Jul 14:41:35 14:45:52 32° 97° (E) 14:50:07 436.000
JAS-2 02 Jul 14:43:13 14:46:24 13° 273° (W) 14:49:30 435.910
ISS 02 Jul 14:45:14 14:47:50 22° 225° (SW) 14:50:25 145.825
ITUPSAT 1 02 Jul 14:45:30 14:49:53 34° 97° (E) 14:54:13 437.325
Oscar 19 02 Jul 14:48:09 14:51:35 18° 268° (W) 14:55:01 437.125/150
TISAT 1 02 Jul 14:58:43 15:02:25 30° 291° (WNW) 15:06:05 437.305
ITAMSAT 1 02 Jul 15:18:03 15:23:10 56° 259° (W) 15:28:20 435.822/435.867
Gurwin Techsat 1B 02 Jul 15:41:08 15:43:54 14° 271° (W) 15:46:40 435.225
SWISSCUBE 02 Jul 15:54:21 15:58:55 44° 290° (WNW) 16:03:26 437.505
KKS-1 02 Jul 15:56:53 16:00:25 23° 94° (E) 16:03:55 437.445
SO-50 02 Jul 15:58:08 16:02:49 44° 310° (NW) 16:07:28 436.795
Cosmos 2504 02 Jul 16:02:54 16:09:09 22° 298° (WNW) 16:15:39 435.465 / 435.565
RS-15 02 Jul 16:04:37 16:14:03 25° 358° (N) 16:23:41 29.354- 29.394
STARS 02 Jul 16:17:11 16:20:19 19° 93° (E) 16:23:27 437.465
MOZHAYETS 4 02 Jul 16:18:45 16:23:05 37° 97° (E) 16:27:21
BEESAT 02 Jul 16:19:27 16:23:34 29° 293° (WNW) 16:27:39 436.000
HORYU 2 02 Jul 16:20:25 16:24:30 38° 70° (ENE) 16:28:39 437.375
AO-7 02 Jul 16:23:15 16:31:16 51° 259° (WSW) 16:39:23 29.400- 29.500
ITUPSAT 1 02 Jul 16:23:33 16:27:35 27° 294° (WNW) 16:31:36 437.325
Cosmos 2499 02 Jul 16:44:02 16:46:18 11° 71° (ENE) 16:48:36 435.465 / 435.565
NOAA 18 02 Jul 16:50:42 16:54:14 18° 59° (ENE) 16:57:47 137.9125
BRITE-PL 02 Jul 16:51:54 16:54:50 17° 65° (ENE) 16:57:40 437.365/2234.400
AIST 1 02 Jul 16:52:04 16:56:21 82° 99° (E) 17:00:40
CUTE-I 02 Jul 16:53:20 16:56:31 16° 59° (ENE) 16:59:43 437.470
NOAA 15 02 Jul 17:05:24 17:09:47 27° 65° (ENE) 17:14:09 137.62
KKS-1 02 Jul 17:33:00 17:37:03 35° 291° (WNW) 17:41:05 437.445
SO-50 02 Jul 17:43:44 17:44:32 10° 331° (NNW) 17:45:22 436.795
GONETS M04 02 Jul 17:49:12 17:57:27 51° 89° (E) 18:05:44
STARS 02 Jul 17:52:42 17:56:51 42° 290° (WNW) 18:01:00 437.465
MOZHAYETS 4 02 Jul 17:56:21 18:00:01 24° 294° (WNW) 18:03:41
Cubesat XI-IV 02 Jul 17:57:48 18:03:01 56° 71° (ENE) 18:08:17 437.490
HORYU 2 02 Jul 17:57:51 18:01:11 21° 266° (W) 18:04:33 437.375
CUBESAT XI-V 02 Jul 17:58:23 18:02:53 49° 99° (E) 18:07:19 437.345
DANDE 02 Jul 18:04:29 18:07:59 22° 65° (ENE) 18:10:50 436.750
RS-15 02 Jul 18:20:16 18:31:26 38° 32° (NNE) 18:42:36 29.354- 29.394
LilacSat-2 02 Jul 18:22:17 18:26:05 89° 255° (WSW) 18:29:56 437.200
BRITE-PL 02 Jul 18:28:11 18:33:00 56° 260° (W) 18:37:28 437.365/2234.400
NOAA 18 02 Jul 18:28:49 18:34:16 72° 256° (WSW) 18:39:48 137.9125
Cosmos 2499 02 Jul 18:29:11 18:37:26 62° 91° (E) 18:46:09 435.465 / 435.565
CUTE-I 02 Jul 18:30:33 18:35:54 76° 257° (WSW) 18:41:19 437.470
GOMX 1 02 Jul 18:38:42 18:43:12 86° 74° (ENE) 18:47:28 467.674
CUSAT 1 02 Jul 18:41:58 18:44:59 35° 267° (W) 18:47:32 437.405
NOAA 15 02 Jul 18:44:23 18:49:21 41° 262° (W) 18:54:20 137.62
HO-68 02 Jul 18:47:33 18:53:33 30° 60° (ENE) 18:59:35 435.675
CANX-2 02 Jul 19:14:59 19:18:37 27° 68° (ENE) 19:22:15 2200.000
DOVE 4 02 Jul 19:16:06 19:20:21 84° 259° (WSW) 19:24:31 437.250
SEEDS 02 Jul 19:29:46 19:33:14 25° 68° (ENE) 19:36:43 437.485
STRAND 1 02 Jul 19:31:27 19:35:59 31° 96° (E) 19:40:30 437.568
CUTE 1.7 + AOD 2 02 Jul 19:33:42 19:37:38 37° 71° (ENE) 19:41:36 437.475
CUBESAT XI-V 02 Jul 19:36:44 19:39:53 18° 296° (WNW) 19:43:01 437.345
CINEMA 3 02 Jul 19:38:22 19:42:19 46° 72° (ENE) 19:46:21 145.822/145.860
Cubesat XI-IV 02 Jul 19:39:38 19:43:26 20° 268° (W) 19:47:16 437.490
UWE-3 02 Jul 19:44:45 19:46:33 12° 61° (ENE) 19:48:23 435.000/436.395/437.385
GONETS M04 02 Jul 19:46:39 19:54:30 37° 290° (WNW) 20:02:24
DANDE 02 Jul 19:47:22 19:50:44 22° 275° (W) 19:53:29 436.750
AO-85 02 Jul 19:49:35 19:54:01 26° 112° (ESE) 19:58:22 145.980
M-CUBED/EXP-1 PRIME 02 Jul 19:49:49 19:51:27 13° 59° (ENE) 19:53:06 437.505
AAUSAT CUBESAT 2 02 Jul 19:55:35 19:59:06 26° 68° (ENE) 20:02:36 437.432
Cosmos 2499 02 Jul 20:23:45 20:31:09 32° 293° (WNW) 20:38:51 435.465 / 435.565
RS-15 02 Jul 20:33:10 20:45:35 87° 238° (WSW) 20:57:50 29.354- 29.394
COMPASS 1 02 Jul 20:33:30 20:37:43 87° 76° (ENE) 20:41:58 437.405
HO-68 02 Jul 20:33:51 20:40:51 58° 258° (WSW) 20:47:57 435.675
PRISM 02 Jul 20:35:14 20:38:00 18° 93° (E) 20:40:46 437.425
AUBIESAT-1 02 Jul 20:39:02 20:42:09 42° 67° (ENE) 20:45:23 437.475
CUBEBUG 2 02 Jul 20:40:45 20:44:55 69° 75° (ENE) 20:49:14 437.445
ZACube-1 02 Jul 20:46:53 20:50:46 36° 70° (ENE) 20:54:46 437.345
Oscar 11 02 Jul 20:47:31 20:51:34 40° 71° (ENE) 20:55:39 145.826/435.025
CANX-2 02 Jul 20:50:42 20:54:24 28° 265° (W) 20:58:06 2200.000
FUNcube-1 02 Jul 21:01:35 21:05:40 49° 72° (ENE) 21:09:53 145.935
DELFI C3 02 Jul 21:03:37 21:06:59 26° 68° (ENE) 21:10:20 145.870
SEEDS 02 Jul 21:05:04 21:08:49 30° 264° (W) 21:12:35 437.485
CUTE 1.7 + AOD 2 02 Jul 21:10:25 21:13:35 20° 267° (W) 21:16:47 437.475
STRAND 1 02 Jul 21:10:32 21:15:09 34° 293° (WNW) 21:19:43 437.568
CINEMA 3 02 Jul 21:17:27 21:19:46 15° 269° (W) 21:22:07 145.822/145.860
UWE-3 02 Jul 21:18:14 21:22:25 67° 259° (W) 21:26:46 435.000/436.395/437.385
HUMSAT D 02 Jul 21:20:06 21:23:10 20° 66° (ENE) 21:26:17 437.325/437.525
M-CUBED/EXP-1 PRIME 02 Jul 21:22:43 21:25:43 35° 256° (WSW) 21:28:49 437.505
AO-85 02 Jul 21:29:02 21:34:17 50° 308° (NW) 21:39:21 145.980
AAUSAT CUBESAT 2 02 Jul 21:30:55 21:34:30 27° 265° (W) 21:38:06 437.432
ANTELSAT 02 Jul 21:53:47 21:54:43 11° 88° (E) 21:55:39 437.575/2403.000
YUBILEINY 02 Jul 22:00:27 22:06:39 20° 61° (ENE) 22:12:48 435.215
PRISM 02 Jul 22:09:40 22:13:28 37° 290° (WNW) 22:17:13 437.425
AUBIESAT-1 02 Jul 22:16:26 22:16:58 10° 264° (W) 22:17:29 437.475
CUBEBUG 2 02 Jul 22:21:26 22:22:04 10° 272° (W) 22:22:44 437.445
ZACube-1 02 Jul 22:24:01 22:27:11 20° 267° (W) 22:30:26 437.345
Oscar 11 02 Jul 22:24:45 22:27:51 19° 267° (W) 22:30:59 145.826/435.025
ESTCUBE 1 02 Jul 22:26:14 22:29:37 21° 65° (ENE) 22:33:00 437.505/2401.250
DELFI C3 02 Jul 22:38:23 22:41:45 25° 265° (W) 22:45:09 145.870
FUNcube-1 02 Jul 22:39:45 22:42:14 15° 270° (W) 22:44:45 145.935
TIGRISAT 02 Jul 22:41:11 22:45:23 32° 96° (E) 22:49:36 435.000
CUBEBUG 1 02 Jul 22:45:04 22:48:20 21° 66° (ENE) 22:51:36 437.445
RS-15 02 Jul 22:47:28 22:56:20 24° 261° (W) 23:05:07 29.354- 29.394
UNISAT 6 02 Jul 22:47:49 22:52:14 39° 98° (E) 22:56:39 437.425
SO-50 02 Jul 22:48:43 22:52:52 30° 45° (NE) 22:56:54 436.795
HUMSAT D 02 Jul 22:54:38 22:58:32 37° 263° (W) 23:02:31 437.325/437.525
VELOX 1 02 Jul 23:05:04 23:08:57 31° 69° (ENE) 23:12:50 145.980
